Location: Banksville Park
(38.5557°N, 75.1182°W)
Time: 01:18:32
(UTC+00:00)

PAYLOAD A - Pass Details

Date: 19 September 2020
Orbit: 691 x 832 km, 98.3° (Epoch: 30 October)

Event Time Altitude Azimuth Distance (km) Brightness Sun altitude
Rises 09:17:00 0° 7° (N) 3,085 7.5 -17.9°
Reaches altitude 10° 09:19:18 10° 3° (N) 2,157 6.6 -17.5°
Maximum altitude 09:23:51 52° 287° (WNW) 858 3.9 -16.7°
Enters shadow 09:26:52 20° 218° (SW) 1,567 5.2 -16.1°
